{"data":{"norad_id":60343,"intl_designator":"2024-136Q","name":"STARLINK-32083","alt_names":[],"object_type":"PAYLOAD","status":"ACTIVE","operator":null,"country":"US","launch_date":"2024-08-02","launch_site_code":"AFETR","launch_vehicle":null,"mission":null,"orbit_class":"UNKNOWN","rcs_meters":null,"size_class":null,"mass_kg":null,"dimensions":null,"purposes":["comms"],"wikipedia_slug":null,"has_3d_model":false,"image_url":null,"decayed_at":null,"tle_current":{"epoch":"2026-09-21T22:38:47.957568Z","epoch_age_seconds":60905,"freshness":"FRESH","line1":"1 60343U 24136Q   26264.94361062 -.00000277  00000+0  29259-5 0  9991","line2":"2 60343  53.1584 243.2205 0001381  85.8479 274.2681 15.34389188119726","mean_motion":15.34389188,"eccentricity":0.0001381,"inclination_deg":53.1584,"raan_deg":243.2205,"arg_perigee_deg":85.8479,"mean_anomaly_deg":274.2681,"bstar":2.9259e-6,"rev_number":11972,"period_min":93.848419375072,"perigee_km":461.79065146321,"apogee_km":463.68010041345,"semimajor_km":6840.8723759383,"source":"CELESTRAK","updated_at":"2026-09-22T09:00:49.221625Z"}}}